Regional Weather Roundup
Issued by NWS Charleston, SC

Current Version | Previous Version | Graphics & Text | Print | Product List | Glossary On
Versions: 1 2 3 4 5 6 7 8 9 10 11 12 13 14 15 16 17 18 19 20 21 22 23 24 25 26 27 28 29 30 31 32 33 34 35 36 37 38 39 40 41 42 43 44 45 46 47 48 49 50
000
ASUS42 KCHS 130213
RWRCHS

REGIONAL WEATHER ROUNDUP
NATIONAL WEATHER SERVICE CHARLESTON SC
900 PM EST FRI FEB 12 2016

NOTE: "FAIR" INDICATES FEW OR NO CLOUDS BELOW 12,000 FEET WITH NO
SIGNIFICANT WEATHER AND/OR OBSTRUCTIONS TO VISIBILITY.

NOT ALL STATIONS ARE QUALITY CONTROLLED BY THE NATIONAL
WEATHER SERVICE. USE DATA WITH CAUTION...ESPECIALLY
DEWPOINT OBSERVATIONS.

SCZ027-030-031-034>040-042>050-130300-
...SOUTHEAST SOUTH CAROLINA...

CITY           SKY/WX    TMP DP  RH WIND       PRES   REMARKS
N CHARLESTON   PTCLDY    44  36  73 N3        30.05F
WATERFRONT PRK   N/A     47  45  93 N5        29.90F
MOUNT PLEASANT FAIR      43  43 100 CALM      30.05F
JOHNS ISLAND   FAIR      45  45 100 CALM      30.05F FOG
PINOPOLIS        N/A     46  36  66 E5        29.97F
MONCKS CORNER  FAIR      36  32  87 CALM      30.05S
SUMMERVILLE    NOT AVBL
BEAUFORT MCAS  CLEAR     48  46  93 W3        30.05S
BEAUFORT ARPT  FAIR      48  48 100 CALM      30.05R FOG
HILTON HEAD IS CLEAR     50  48  93 CALM      30.06S
WALTERBORO     PTCLDY    45  41  87 CALM      30.06R
ALLENDALE      FAIR      45  45 100 CALM      30.04S

...SOUTHERN MIDLANDS AND PEE DEE...

CITY           SKY/WX    TMP DP  RH WIND       PRES   REMARKS
GEORGETOWN     FAIR      34  32  93 CALM      30.06F
KINGSTREE      FAIR      34  28  80 CALM      30.05F
ORANGEBURG     CLEAR     41  34  76 CALM      30.04F
BARNWELL       FAIR      45  39  81 CALM      30.05R
AIKEN          FAIR      37  32  81 CALM      30.07S
MANNING        FAIR      32  30  93 CALM      30.05F
COLUMBIA       CLEAR     37  30  75 W5        30.04S WCI  33
SUMTER         CLEAR     36  29  75 N2        30.02S
FLORENCE       CLEAR     32  27  81 NE6       30.05F WCI  26
MYRTLE BEACH   NOT AVBL
N MYRTLE BEACH CLEAR     34  28  79 N5        30.07R WCI  30

$$

GAZ063-065-086>088-099>101-113>116-118-119-134>141-150-130300-
...SOUTHEAST GEORGIA...

CITY           SKY/WX    TMP DP  RH WIND       PRES   REMARKS
SAVANNAH ARPT  CLEAR     55  49  80 CALM      30.05S
HUNTER AAF     CLEAR     55  51  83 W5        30.03R
FORT STEWART   CLEAR     53  49  84 SW1       30.04R
STATESBORO     CLEAR     53  53  99 CALM      30.05R
SYLVANIA       CLEAR     49  48  99 CALM      30.06R
CLAXTON        FAIR      59  51  76 SW8       30.05S

...CSRA...CENTRAL AND FAR SOUTHEAST GEORGIA...

CITY           SKY/WX    TMP DP  RH WIND       PRES   REMARKS
THOMSON        CLEAR     41  38  88 NW3       30.11R
AUGUSTA-BUSH   CLEAR     39  36  89 SW3       30.05R
AUGUSTA-DANIEL CLEAR     50  35  56 CALM      30.05S
SWAINSBORO     FAIR      48  46  93 CALM      30.08R
VIDALIA        CLEAR     59  45  58 W7        30.07R
EASTMAN        FAIR      61  41  48 W7        30.11R
HAZLEHURST     FAIR      58  50  75 CALM      30.07S
ALMA           CLEAR     61  50  67 W6        30.08S
WAYCROSS       CLEAR     64  53  68 W6        30.09S
JESUP          FAIR      63  54  72 W3        30.08R
BAXLEY         FAIR      61  52  72 W5        30.08R
BRUNSWICK      CLEAR     64  52  63 W7        30.08S
SAINT SIMONS   PTCLDY    63  53  70 SW6       30.08R

$$

SCZ027-028-034-036>038-045-046-048>050-GAZ119-141-130300-
...LAKE AND SUPPLEMENTAL COASTAL OBSERVATIONS...

STATION/POSITION TIME  TEMP    WIND        PRES    WAVE   SWELL
                       AIR SEA DIR/SP/G            HT/PER HT/PER/DIR
                 (UTC) (F)     (DEG/KT/KT) (MB)    (FT/S) (FT/S/D)
WINYAH BAY       0045   41     320/  3     1017.0
LAKE MURRAY      0100   44      CALM  /  1 1016.6S
ACE BASIN NERRS  0045   51        CALM     1017.0
FORT PULASKI     0100   58 49              1017.6R
SAPELO ISLAND    0100   59     270/  4     1018.0R

$$

ANZ835-935-AMZ111-154-330-350-352-354-370-450-454-472-130300-
...C-MAN AND BUOY OBSERVATIONS...

STATION/POSITION TIME  TEMP    WIND        PRES    WAVE   SWELL
                       AIR SEA DIR/SP/G            HT/PER HT/PER/DIR
                 (UTC) (F)     (DEG/KT/KT) (MB)    (FT/S) (FT/S/D)
BUOY 41004       0150   53 68  320/ 12/ 16 1017.2R   4/ 6   3/ 6
BUOY 41008       0150   58 53  230/  8/ 10 1018.1R   3/ 6   2/150/ 6
FOLLY BEACH CMAN 0200   47      40/  4/  4 1017.6F
CAPERS NEARSHORE 0108   48      30/  6/ 10 1017.5F
FRIPP NEARSHORE  0100   51      CALM  /  4 1017.0R


STATION/POSITION TIME  TEMP    WIND        PRES    WAVE   SWELL
                       AIR SEA DIR/SP/G            HT/PER HT/PER/DIR
                 (UTC) (F)     (DEG/KT/KT) (MB)    (FT/S) (FT/S/D)
5E ST. MARYS GA  0121      56                N/A     2/ 4
FRYING PAN BUOY  0100   43 52  320/ 12/ 16 1017.4S
BUOY 41025       0150   45 71  330/ 16/ 19 1014.7R   5/ 5   2/ 70/ 8
CAPE LOOKOUT NC  NOT AVBL
BUOY 41002       0150   62 68  260/ 27/ 33   N/A    16/ 9
BUOY 41010       0120   71 72              1021.2R
ST AUGUSTINE FL  0200   63 58  250/ 10/ 14 1021.2R


$$



USA.gov is the U.S. government's official web portal to all federal, state and local government web resources and services.